Hourly Data Report for October 27, 2015

All times are specified in Local Standard Time (LST). Add 1 hour to adjust for Daylight Saving Time where and when it is observed.

CLYDE RIVER A
NUNAVUT

70°29'09.000" N
68°31'01.000" W
26.50 m
2400804
71090
YCY

Download Data

Hourly Data (October 2015)
Hourly Data Report for October 27, 2015
Temp Definition
°C
Dew Point Temp Definition
°C
Rel Hum Definition
%
Wind Dir Definition
10's deg

Wind Spd Definition
km/h
Visibility Definition
km
Stn Press Definition
kPa
Hmdx Definition


Wind Chill Definition


Weather Definition


TIME
00:00 Legend Double Dagger -12.6 -15.9 77 19 15 16.1 98.90   -20 LegendNANA
01:00 Legend Double Dagger -10.3 -15.0 69 20 18 16.1 98.98   -18 LegendNANA
02:00 Legend Double Dagger -11.4 -15.3 73 18 11 16.1 99.08   -17 LegendNANA
03:00 Legend Double Dagger -12.6 -16.4 74 29 8 16.1 99.16   -18 LegendNANA
04:00 Legend Double Dagger -12.4 -17.1 68 26 11 16.1 99.25   -18 LegendNANA
05:00 Legend Double Dagger -11.9 -16.3 70 24 11 16.1 99.33   -18 LegendNANA
06:00 Legend Double Dagger -10.7 -15.0 71 21 21 16.1 99.42   -19 LegendNANA
07:00 Legend Double Dagger -13.8 -17.8 72 28 9 16.1 99.53   -19 LegendNANA
08:00 Legend Double Dagger -15.2 -19.4 71 26 5 16.1 99.61   -19 LegendNANA
09:00 Legend Double Dagger -14.8 -19.0 71 LegendMM 4 16.1 99.69   -18 LegendNANA
10:00 Legend Double Dagger -13.7 -18.2 69 23 11 16.1 99.75   -20 LegendNANA
11:00 Legend Double Dagger -14.3 -18.9 69 LegendMM 4 16.1 99.81   -17 LegendNANA
12:00 Legend Double Dagger -15.2 -20.2 66 25 11 16.1 99.88   -22 LegendNANA
13:00 Legend Double Dagger -16.1 -20.6 69 24 13 16.1 99.93   -24 LegendNANA
14:00 Legend Double Dagger -15.8 -21.1 65 LegendMM 4 16.1 100.00   -19 LegendNANA
15:00 Legend Double Dagger -20.6 -24.4 72 LegendMM 4 16.1 100.07   -24 LegendNANA
16:00 Legend Double Dagger -18.8 -23.7 66 27 9 16.1 100.13   -25 LegendNANA
17:00 Legend Double Dagger -18.8 -24.4 62 29 11 16.1 100.18   -26 LegendNANA
18:00 Legend Double Dagger -16.5 -23.4 56 24 11 16.1 100.21   -23 LegendNANA
19:00 Legend Double Dagger -19.6 -25.6 60 28 13 16.1 100.23   -28 LegendNANA
20:00 Legend Double Dagger -18.3 -24.9 57 29 24 16.1 100.25   -29 LegendNANA
21:00 Legend Double Dagger -15.3 -23.8 49 26 11 16.1 100.29   -22 LegendNANA
22:00 Legend Double Dagger -16.2 -24.9 48 28 18 16.1 100.30   -25 LegendNANA
23:00 Legend Double Dagger -17.6 -24.4 56 29 30 16.1 100.30   -29 LegendNANA

Notes on Data Quality.

Legend

  • E = Estimated
  • M = Missing
  • NA = Not Available
  • ‡ = Partner data that is not subject to review by the National Climate Archives
Date modified: